Welcome to Northern Hawkes Bay. New Zealand.
PWS Header
      nz Flag



Hit Counter


W3C Valid W3C Valid logo


    Wairoa

Select any of the Stations below to visit their websites.










Historic Data from Weather Underground
Select the location of interest below. Wairoa is the default. Please have patience, this Data is slow to load in.
Northern Hawkes Bay Historical Data
Daily Summary for October 23, 2017 Units:  Metric    English   Both
« Previous Day
Next Day »
Daily Weekly Monthly Yearly Custom
  High: Low: Average:
Temperature: 20.2 °C 11.8 °C 14.3 °C
Dew Point: 13.2 °C 6.7 °C 9.6 °C
Humidity: 95% 61% 74%
Wind Speed: 15.8km/h 0.0km/h 4.5km/h
Wind Gust: 23.3km/h - -
Wind- - SW
Pressure: 1007.3 hPa 1002.6 hPa -
Precipitation: 0.5 mm    
Historical Graphs
 
 
Tabular Data for October 23, 2017
Time Temperature Dew Point Pressure Wind Wind Speed Wind Gust Humidity Rainfall Rate (Hourly) solar
00:03 13.7 °C 7.4 °C 1005.3 hPa NNW 6.1 km/h 17.2 km/h 66% 0.0 mm 0 W/m2
00:08 13.7 °C 7.4 °C 1005.6 hPa NNW 9.7 km/h 18.3 km/h 66% 0.0 mm 0 W/m2
00:13 13.7 °C 7.4 °C 1005.3 hPa NNW 7.2 km/h 18.3 km/h 66% 0.0 mm 0 W/m2
00:18 13.6 °C 7.4 °C 1005.6 hPa NNW 5.0 km/h 14.8 km/h 66% 0.0 mm 0 W/m2
00:23 13.5 °C 7.5 °C 1005.6 hPa NNW 6.1 km/h 15.8 km/h 67% 0.0 mm 0 W/m2
00:29 13.5 °C 7.5 °C 1005.6 hPa North 7.2 km/h 15.8 km/h 67% 0.0 mm 0 W/m2
00:34 13.4 °C 7.4 °C 1005.6 hPa North 8.7 km/h 14.8 km/h 67% 0.0 mm 0 W/m2
00:36 13.4 °C 7.4 °C 1005.3 hPa North 6.1 km/h 14.8 km/h 67% 0.0 mm 0 W/m2
00:41 13.5 °C 7.3 °C 1005.6 hPa NNW 12.2 km/h 19.5 km/h 66% 0.0 mm 0 W/m2
00:46 13.7 °C 7.4 °C 1005.6 hPa North 11.1 km/h 19.5 km/h 66% 0.0 mm 0 W/m2
00:56 13.6 °C 7.2 °C 1005.6 hPa NNW 5.0 km/h 17.2 km/h 65% 0.0 mm 0 W/m2
01:01 13.6 °C 7.2 °C 1005.6 hPa NNW 5.0 km/h 17.2 km/h 65% 0.0 mm 0 W/m2
01:06 13.5 °C 7.3 °C 1005.6 hPa North 6.1 km/h 15.8 km/h 66% 0.0 mm 0 W/m2
01:11 13.4 °C 7.2 °C 1005.6 hPa NNW 3.5 km/h 12.2 km/h 66% 0.0 mm 0 W/m2
01:16 13.1 °C 6.9 °C 1005.6 hPa North 6.1 km/h 12.2 km/h 66% 0.0 mm 0 W/m2
01:21 12.9 °C 7.2 °C 1005.6 hPa North 7.2 km/h 13.4 km/h 68% 0.0 mm 0 W/m2
01:26 12.8 °C 7.1 °C 1005.6 hPa North 5.0 km/h 13.4 km/h 68% 0.0 mm 0 W/m2
01:31 12.7 °C 6.9 °C 1005.6 hPa North 5.0 km/h 13.4 km/h 68% 0.0 mm 0 W/m2
01:37 12.7 °C 6.9 °C 1005.6 hPa North 5.0 km/h 11.1 km/h 68% 0.0 mm 0 W/m2
01:42 12.6 °C 7.1 °C 1006.0 hPa North 5.0 km/h 9.7 km/h 69% 0.0 mm 0 W/m2
01:47 12.5 °C 6.9 °C 1005.6 hPa North 6.1 km/h 9.7 km/h 69% 0.0 mm 0 W/m2
01:52 12.5 °C 6.9 °C 1005.6 hPa North 3.5 km/h 9.7 km/h 69% 0.0 mm 0 W/m2
01:58 12.7 °C 6.9 °C 1005.6 hPa North 7.2 km/h 11.1 km/h 68% 0.0 mm 0 W/m2
02:03 12.9 °C 6.9 °C 1005.6 hPa North 6.1 km/h 13.4 km/h 67% 0.0 mm 0 W/m2
02:08 12.9 °C 6.7 °C 1005.6 hPa NNW 7.2 km/h 13.4 km/h 66% 0.0 mm 0 W/m2
02:13 13.0 °C 6.8 °C 1005.6 hPa NNW 7.2 km/h 14.8 km/h 66% 0.0 mm 0 W/m2
02:18 13.0 °C 6.8 °C 1005.6 hPa NNW 6.1 km/h 15.8 km/h 66% 0.0 mm 0 W/m2
02:23 12.9 °C 6.9 °C 1005.6 hPa NNW 6.1 km/h 15.8 km/h 67% 0.0 mm 0 W/m2
02:28 12.8 °C 6.8 °C 1005.6 hPa NNW 7.2 km/h 12.2 km/h 67% 0.0 mm 0 W/m2
02:33 12.6 °C 6.8 °C 1005.6 hPa NNW 7.2 km/h 13.4 km/h 68% 0.0 mm 0 W/m2
02:38 12.4 °C 6.9 °C 1005.6 hPa North 7.2 km/h 13.4 km/h 69% 0.0 mm 0 W/m2
02:43 12.5 °C 6.9 °C 1005.6 hPa NNW 6.1 km/h 14.8 km/h 69% 0.0 mm 0 W/m2
02:48 12.5 °C 6.9 °C 1005.6 hPa North 8.7 km/h 18.3 km/h 69% 0.0 mm 0 W/m2
02:53 12.6 °C 7.1 °C 1005.6 hPa North 3.5 km/h 18.3 km/h 69% 0.0 mm 0 W/m2
02:58 12.5 °C 6.9 °C 1005.6 hPa North 5.0 km/h 14.8 km/h 69% 0.0 mm 0 W/m2
03:03 12.5 °C 7.2 °C 1005.6 hPa NNW 8.7 km/h 13.4 km/h 70% 0.0 mm 0 W/m2
03:08 12.5 °C 7.2 °C 1006.0 hPa NNW 8.7 km/h 14.8 km/h 70% 0.0 mm 0 W/m2
03:13 12.4 °C 7.1 °C 1005.6 hPa North 9.7 km/h 14.8 km/h 70% 0.0 mm 0 W/m2
03:18 12.4 °C 7.1 °C 1005.6 hPa NNW 11.1 km/h 15.8 km/h 70% 0.0 mm 0 W/m2
03:23 12.4 °C 7.1 °C 1005.6 hPa NNW 7.2 km/h 15.8 km/h 70% 0.0 mm 0 W/m2
03:28 12.5 °C 7.2 °C 1006.0 hPa North 5.0 km/h 18.3 km/h 70% 0.0 mm 0 W/m2
03:33 12.4 °C 7.1 °C 1006.0 hPa North 8.7 km/h 18.3 km/h 70% 0.0 mm 0 W/m2
03:38 12.3 °C 7.2 °C 1005.6 hPa NNW 5.0 km/h 12.2 km/h 71% 0.0 mm 0 W/m2
03:43 12.3 °C 7.2 °C 1005.6 hPa NNW 9.7 km/h 14.8 km/h 71% 0.0 mm 0 W/m2
03:48 12.5 °C 6.9 °C 1005.6 hPa North 8.7 km/h 15.8 km/h 69% 0.0 mm 0 W/m2
03:53 12.6 °C 6.8 °C 1005.6 hPa North 9.7 km/h 18.3 km/h 68% 0.0 mm 0 W/m2
03:58 12.7 °C 6.9 °C 1006.0 hPa North 9.7 km/h 18.3 km/h 68% 0.0 mm 0 W/m2
04:03 12.8 °C 6.8 °C 1006.0 hPa NNW 7.2 km/h 17.2 km/h 67% 0.0 mm 0 W/m2
04:08 12.7 °C 6.9 °C 1006.0 hPa North 6.1 km/h 15.8 km/h 68% 0.0 mm 0 W/m2
04:13 12.6 °C 6.8 °C 1005.6 hPa North 5.0 km/h 13.4 km/h 68% 0.0 mm 0 W/m2
04:18 12.6 °C 6.8 °C 1005.6 hPa NNW 5.0 km/h 12.2 km/h 68% 0.0 mm 0 W/m2
04:23 12.5 °C 6.9 °C 1006.0 hPa North 8.7 km/h 12.2 km/h 69% 0.0 mm 0 W/m2
04:28 12.5 °C 6.9 °C 1006.0 hPa North 6.1 km/h 13.4 km/h 69% 0.0 mm 0 W/m2
04:33 12.4 °C 6.9 °C 1006.0 hPa North 8.7 km/h 14.8 km/h 69% 0.0 mm 0 W/m2
04:38 12.4 °C 7.1 °C 1006.0 hPa North 6.1 km/h 14.8 km/h 70% 0.0 mm 0 W/m2
04:43 12.3 °C 7.0 °C 1006.0 hPa NNW 6.1 km/h 12.2 km/h 70% 0.0 mm 0 W/m2
04:48 12.3 °C 7.0 °C 1006.0 hPa North 5.0 km/h 12.2 km/h 70% 0.0 mm 0 W/m2
04:53 12.3 °C 7.0 °C 1006.0 hPa North 6.1 km/h 11.1 km/h 70% 0.0 mm 0 W/m2
04:58 12.2 °C 7.1 °C 1006.0 hPa North 3.5 km/h 11.1 km/h 71% 0.0 mm 0 W/m2
05:03 12.1 °C 7.0 °C 1006.0 hPa North 3.5 km/h 11.1 km/h 71% 0.0 mm 0 W/m2
05:08 12.1 °C 7.0 °C 1006.0 hPa North 5.0 km/h 11.1 km/h 71% 0.0 mm 0 W/m2
05:13 12.1 °C 7.0 °C 1006.0 hPa NNW 7.2 km/h 11.1 km/h 71% 0.0 mm 0 W/m2
05:18 12.2 °C 7.1 °C 1006.0 hPa NNW 5.0 km/h 13.4 km/h 71% 0.0 mm 0 W/m2
05:23 12.2 °C 7.1 °C 1006.0 hPa North 5.0 km/h 13.4 km/h 71% 0.0 mm 0 W/m2
05:28 12.3 °C 7.2 °C 1006.0 hPa NNW 3.5 km/h 12.2 km/h 71% 0.0 mm 0 W/m2
05:33 12.2 °C 7.1 °C 1006.0 hPa NNW 3.5 km/h 12.2 km/h 71% 0.0 mm 0 W/m2
05:38 12.2 °C 7.1 °C 1006.0 hPa North 3.5 km/h 11.1 km/h 71% 0.0 mm 0 W/m2
05:43 12.1 °C 7.0 °C 1006.0 hPa North 2.6 km/h 11.1 km/h 71% 0.0 mm 0 W/m2
05:48 12.1 °C 7.0 °C 1006.0 hPa NNW 5.0 km/h 9.7 km/h 71% 0.0 mm 0 W/m2
05:53 12.0 °C 6.9 °C 1006.0 hPa NNW 5.0 km/h 11.1 km/h 71% 0.0 mm 0 W/m2
05:58 12.0 °C 7.1 °C 1006.0 hPa North 3.5 km/h 11.1 km/h 72% 0.0 mm 0 W/m2
06:03 12.0 °C 7.1 °C 1006.0 hPa North 5.0 km/h 11.1 km/h 72% 0.0 mm 0 W/m2
06:08 12.0 °C 7.1 °C 1006.0 hPa NNW 3.5 km/h 8.7 km/h 72% 0.0 mm 0 W/m2
06:13 12.0 °C 7.1 °C 1006.0 hPa NNW 5.0 km/h 11.1 km/h 72% 0.0 mm 0 W/m2
06:18 12.0 °C 7.1 °C 1006.3 hPa NNW 2.6 km/h 11.1 km/h 72% 0.0 mm 0 W/m2
06:23 12.1 °C 7.2 °C 1006.0 hPa NNW 2.6 km/h 9.7 km/h 72% 0.0 mm 0 W/m2
06:28 12.1 °C 7.2 °C 1006.3 hPa North 1.1 km/h 9.7 km/h 72% 0.0 mm 0 W/m2
06:33 12.1 °C 7.2 °C 1006.0 hPa North 3.5 km/h 9.7 km/h 72% 0.0 mm 2 W/m2
06:38 12.2 °C 7.3 °C 1006.0 hPa North 1.1 km/h 9.7 km/h 72% 0.0 mm 3 W/m2
06:43 12.3 °C 7.4 °C 1006.3 hPa North 3.5 km/h 11.1 km/h 72% 0.0 mm 5 W/m2
06:48 12.5 °C 7.4 °C 1006.0 hPa North 2.6 km/h 11.1 km/h 71% 0.0 mm 9 W/m2
06:53 12.7 °C 7.4 °C 1006.3 hPa North 6.1 km/h 12.2 km/h 70% 0.0 mm 12 W/m2
06:59 12.7 °C 7.4 °C 1006.0 hPa North 5.0 km/h 12.2 km/h 70% 0.0 mm 13 W/m2
07:04 12.8 °C 7.3 °C 1006.0 hPa North 5.0 km/h 13.4 km/h 69% 0.0 mm 18 W/m2
07:09 12.9 °C 7.3 °C 1006.3 hPa North 8.7 km/h 15.8 km/h 69% 0.0 mm 27 W/m2
07:14 13.0 °C 7.2 °C 1006.3 hPa North 5.0 km/h 15.8 km/h 68% 0.0 mm 32 W/m2
07:19 13.1 °C 7.1 °C 1006.3 hPa North 7.2 km/h 13.4 km/h 67% 0.0 mm 36 W/m2
07:24 13.2 °C 7.2 °C 1006.3 hPa North 3.5 km/h 13.4 km/h 67% 0.0 mm 37 W/m2
07:29 13.2 °C 7.2 °C 1006.3 hPa North 11.1 km/h 13.4 km/h 67% 0.0 mm 44 W/m2
07:39 13.2 °C 7.4 °C 1006.3 hPa North 3.5 km/h 13.4 km/h 68% 0.0 mm 34 W/m2
07:44 13.2 °C 7.4 °C 1006.3 hPa North 2.6 km/h 13.4 km/h 68% 0.0 mm 37 W/m2
07:49 13.3 °C 7.5 °C 1006.7 hPa NNW 2.6 km/h 13.4 km/h 68% 0.0 mm 47 W/m2
07:54 13.2 °C 7.7 °C 1006.7 hPa North 6.1 km/h 12.2 km/h 69% 0.0 mm 49 W/m2
07:55 13.2 °C 7.7 °C 1006.3 hPa North 3.5 km/h 12.2 km/h 69% 0.0 mm 50 W/m2
08:01 13.2 °C 7.8 °C 1006.7 hPa North 6.1 km/h 12.2 km/h 70% 0.0 mm 51 W/m2
08:06 13.2 °C 7.8 °C 1006.7 hPa North 6.1 km/h 12.2 km/h 70% 0.0 mm 54 W/m2
08:11 13.3 °C 7.9 °C 1006.7 hPa North 7.2 km/h 12.2 km/h 70% 0.0 mm 51 W/m2
08:16 13.4 °C 8.1 °C 1006.7 hPa North 6.1 km/h 12.2 km/h 70% 0.0 mm 62 W/m2
08:21 13.4 °C 8.1 °C 1006.7 hPa North 3.5 km/h 11.1 km/h 70% 0.0 mm 70 W/m2
08:26 13.5 °C 8.2 °C 1007.0 hPa North 7.2 km/h 13.4 km/h 70% 0.0 mm 92 W/m2
08:31 13.5 °C 8.3 °C 1007.0 hPa North 3.5 km/h 13.4 km/h 71% 0.0 mm 108 W/m2
08:36 13.9 °C 8.7 °C 1007.0 hPa North 5.0 km/h 13.4 km/h 71% 0.0 mm 111 W/m2
08:41 14.2 °C 8.4 °C 1006.7 hPa North 6.1 km/h 14.8 km/h 68% 0.0 mm 103 W/m2
08:46 14.3 °C 8.3 °C 1006.7 hPa North 8.7 km/h 14.8 km/h 67% 0.0 mm 77 W/m2
08:51 14.3 °C 8.3 °C 1007.0 hPa NNW 9.7 km/h 15.8 km/h 67% 0.0 mm 91 W/m2
08:56 14.4 °C 8.1 °C 1006.7 hPa NNW 9.7 km/h 18.3 km/h 66% 0.0 mm 109 W/m2
09:01 14.5 °C 8.4 °C 1007.0 hPa NNW 7.2 km/h 18.3 km/h 67% 0.0 mm 103 W/m2
09:06 14.7 °C 8.2 °C 1007.0 hPa NNW 12.2 km/h 21.9 km/h 65% 0.0 mm 100 W/m2
09:11 14.8 °C 8.3 °C 1007.0 hPa NNW 15.8 km/h 23.3 km/h 65% 0.0 mm 87 W/m2
09:16 14.8 °C 8.3 °C 1007.0 hPa NNW 12.2 km/h 23.3 km/h 65% 0.0 mm 79 W/m2
09:21 14.7 °C 8.2 °C 1007.0 hPa NNW 9.7 km/h 21.9 km/h 65% 0.0 mm 81 W/m2
09:26 14.7 °C 8.4 °C 1007.0 hPa NNW 11.1 km/h 21.9 km/h 66% 0.0 mm 71 W/m2
09:31 14.7 °C 8.4 °C 1007.0 hPa NW 9.7 km/h 21.9 km/h 66% 0.0 mm 73 W/m2
09:36 14.7 °C 8.4 °C 1007.0 hPa NNW 13.4 km/h 21.9 km/h 66% 0.0 mm 94 W/m2
09:41 14.7 °C 8.4 °C 1007.3 hPa North 9.7 km/h 20.9 km/h 66% 0.0 mm 95 W/m2
09:46 14.7 °C 8.4 °C 1007.3 hPa NNW 9.7 km/h 19.5 km/h 66% 0.0 mm 74 W/m2
09:47 14.7 °C 8.4 °C 1007.0 hPa NNW 9.7 km/h 19.5 km/h 66% 0.0 mm 73 W/m2
09:52 14.6 °C 8.3 °C 1007.3 hPa NNW 11.1 km/h 20.9 km/h 66% 0.0 mm 67 W/m2
09:57 14.5 °C 8.4 °C 1007.3 hPa NNW 14.8 km/h 21.9 km/h 67% 0.0 mm 61 W/m2
10:02 14.2 °C 8.4 °C 1007.3 hPa NNW 8.7 km/h 21.9 km/h 68% 0.0 mm 57 W/m2
10:07 14.1 °C 8.7 °C 1007.3 hPa NNW 8.7 km/h 21.9 km/h 70% 0.0 mm 56 W/m2
10:12 13.8 °C 8.8 °C 1007.3 hPa NNW 7.2 km/h 20.9 km/h 72% 0.0 mm 64 W/m2
10:17 13.6 °C 9.3 °C 1007.3 hPa NNW 6.1 km/h 20.9 km/h 75% 0.0 mm 65 W/m2
10:22 13.6 °C 9.3 °C 1007.3 hPa NNW 6.1 km/h 14.8 km/h 75% 0.0 mm 70 W/m2
10:27 13.8 °C 9.4 °C 1007.3 hPa NNW 9.7 km/h 14.8 km/h 75% 0.0 mm 71 W/m2
10:32 13.9 °C 9.3 °C 1007.3 hPa NNW 5.0 km/h 14.8 km/h 74% 0.0 mm 57 W/m2
10:37 14.1 °C 9.1 °C 1007.3 hPa NNW 3.5 km/h 14.8 km/h 72% 0.0 mm 52 W/m2
10:42 14.2 °C 9.0 °C 1007.3 hPa North 6.1 km/h 9.7 km/h 71% 0.0 mm 56 W/m2
10:47 14.2 °C 9.0 °C 1007.3 hPa North 1.1 km/h 9.7 km/h 71% 0.0 mm 53 W/m2
10:52 14.3 °C 8.9 °C 1007.0 hPa North 1.1 km/h 11.1 km/h 70% 0.0 mm 54 W/m2
10:57 14.3 °C 8.9 °C 1007.0 hPa NNE 5.0 km/h 18.3 km/h 70% 0.0 mm 55 W/m2
11:02 14.4 °C 8.6 °C 1007.0 hPa NNE 3.5 km/h 18.3 km/h 68% 0.0 mm 58 W/m2
11:19 14.6 °C 8.8 °C 1006.7 hPa Calm   12.2 km/h 68% 0.0 mm 68 W/m2
11:24 14.7 °C 8.8 °C 1007.0 hPa North 6.1 km/h 9.7 km/h 68% 0.0 mm 66 W/m2
11:29 14.6 °C 8.8 °C 1006.7 hPa North 6.1 km/h 11.1 km/h 68% 0.0 mm 69 W/m2
11:34 14.6 °C 9.0 °C 1007.0 hPa North 3.5 km/h 11.1 km/h 69% 0.0 mm 65 W/m2
11:39 14.7 °C 8.8 °C 1006.7 hPa North 6.1 km/h 12.2 km/h 68% 0.0 mm 62 W/m2
11:44 14.9 °C 9.1 °C 1006.7 hPa North 8.7 km/h 12.2 km/h 68% 0.0 mm 63 W/m2
11:49 15.0 °C 8.7 °C 1006.7 hPa North 6.1 km/h 13.4 km/h 66% 0.0 mm 65 W/m2
11:54 15.1 °C 8.6 °C 1006.7 hPa NNE 2.6 km/h 13.4 km/h 65% 0.0 mm 66 W/m2
11:59 15.2 °C 8.9 °C 1006.7 hPa NNE 3.5 km/h 12.2 km/h 66% 0.0 mm 76 W/m2
12:04 15.2 °C 8.9 °C 1006.7 hPa NNE 2.6 km/h 11.1 km/h 66% 0.0 mm 77 W/m2
12:09 15.3 °C 9.0 °C 1006.7 hPa Calm   7.2 km/h 66% 0.0 mm 76 W/m2
12:14 15.3 °C 9.0 °C 1006.7 hPa Calm   13.4 km/h 66% 0.0 mm 74 W/m2
12:19 15.3 °C 9.4 °C 1006.3 hPa NNE 3.5 km/h 13.4 km/h 68% 0.0 mm 73 W/m2
12:24 15.3 °C 9.4 °C 1006.3 hPa North 9.7 km/h 14.8 km/h 68% 0.0 mm 74 W/m2
12:29 15.3 °C 9.4 °C 1006.3 hPa Calm   14.8 km/h 68% 0.0 mm 81 W/m2
12:34 15.4 °C 9.7 °C 1006.7 hPa North 2.6 km/h 14.8 km/h 69% 0.0 mm 80 W/m2
12:39 15.5 °C 9.6 °C 1006.3 hPa North 3.5 km/h 12.2 km/h 68% 0.0 mm 76 W/m2
12:44 15.6 °C 9.9 °C 1006.7 hPa North 5.0 km/h 12.2 km/h 69% 0.0 mm 74 W/m2
12:49 15.6 °C 9.7 °C 1006.7 hPa Calm   8.7 km/h 68% 0.0 mm 74 W/m2
12:54 15.7 °C 9.8 °C 1006.7 hPa North 3.5 km/h 8.7 km/h 68% 0.0 mm 77 W/m2
12:59 15.7 °C 9.8 °C 1006.7 hPa NNE 1.1 km/h 9.7 km/h 68% 0.0 mm 74 W/m2
13:04 15.7 °C 9.6 °C 1006.7 hPa NNE 5.0 km/h 11.1 km/h 67% 0.0 mm 72 W/m2
13:09 15.7 °C 9.8 °C 1006.7 hPa North 3.5 km/h 11.1 km/h 68% 0.0 mm 70 W/m2
13:26 15.7 °C 10.1 °C 1006.7 hPa North 1.1 km/h 9.7 km/h 69% 0.0 mm 82 W/m2
13:31 15.7 °C 10.1 °C 1006.7 hPa North 5.0 km/h 12.2 km/h 69% 0.0 mm 77 W/m2
13:36 15.7 °C 10.1 °C 1006.3 hPa NNE 1.1 km/h 12.2 km/h 69% 0.0 mm 77 W/m2
13:41 15.7 °C 10.3 °C 1006.7 hPa NNE 3.5 km/h 12.2 km/h 70% 0.0 mm 72 W/m2
13:46 15.7 °C 10.3 °C 1006.3 hPa Calm   8.7 km/h 70% 0.0 mm 79 W/m2
13:51 15.8 °C 10.6 °C 1006.3 hPa Calm   6.1 km/h 71% 0.0 mm 83 W/m2
13:57 15.7 °C 10.4 °C 1006.0 hPa NNE 2.6 km/h 12.2 km/h 71% 0.0 mm 92 W/m2
14:02 15.7 °C 10.4 °C 1006.0 hPa NNE 1.1 km/h 12.2 km/h 71% 0.0 mm 97 W/m2
14:07 15.7 °C 10.4 °C 1006.0 hPa North 2.6 km/h 11.1 km/h 71% 0.0 mm 94 W/m2
14:12 15.6 °C 10.4 °C 1006.0 hPa NNE 1.1 km/h 11.1 km/h 71% 0.0 mm 106 W/m2
14:17 15.5 °C 10.7 °C 1005.6 hPa NNE 3.5 km/h 11.1 km/h 73% 0.0 mm 93 W/m2
14:22 15.4 °C 10.8 °C 1006.0 hPa North 3.5 km/h 13.4 km/h 74% 0.0 mm 81 W/m2
14:27 15.2 °C 10.8 °C 1006.0 hPa North 5.0 km/h 13.4 km/h 75% 0.0 mm 79 W/m2
14:32 15.1 °C 11.1 °C 1005.6 hPa North 1.1 km/h 11.1 km/h 77% 0.0 mm 90 W/m2
14:37 14.9 °C 11.5 °C 1006.0 hPa Calm   9.7 km/h 80% 0.0 mm 95 W/m2
14:42 14.8 °C 11.6 °C 1006.0 hPa NNE 1.1 km/h 9.7 km/h 81% 0.0 mm 84 W/m2
14:47 14.7 °C 11.8 °C 1006.0 hPa NNE 1.1 km/h 8.7 km/h 83% 0.0 mm 90 W/m2
14:52 14.7 °C 12.1 °C 1005.6 hPa Calm   8.7 km/h 84% 0.0 mm 147 W/m2
14:57 14.8 °C 12.3 °C 1005.6 hPa Calm   7.2 km/h 85% 0.3 mm 116 W/m2
15:02 14.7 °C 12.2 °C 1005.6 hPa NNE 1.1 km/h 7.2 km/h 85% 0.3 mm 85 W/m2
15:07 14.6 °C 12.3 °C 1005.6 hPa North 3.5 km/h 6.1 km/h 86% 0.3 mm 91 W/m2
15:12 14.6 °C 12.3 °C 1005.3 hPa Calm   6.1 km/h 86% 0.3 mm 152 W/m2
15:17 14.9 °C 12.8 °C 1005.3 hPa Calm   6.1 km/h 87% 0.3 mm 176 W/m2
15:22 15.1 °C 12.8 °C 1005.3 hPa NNE 1.1 km/h 5.0 km/h 86% 0.3 mm 222 W/m2
15:27 15.3 °C 13.0 °C 1005.0 hPa ENE 5.0 km/h 7.2 km/h 86% 0.3 mm 182 W/m2
15:32 15.3 °C 12.8 °C 1005.0 hPa ENE 5.0 km/h 8.7 km/h 85% 0.3 mm 262 W/m2
15:37 15.7 °C 13.0 °C 1005.3 hPa Calm   9.7 km/h 84% 0.5 mm 228 W/m2
15:42 15.8 °C 13.1 °C 1005.3 hPa NNE 2.6 km/h 9.7 km/h 84% 0.5 mm 213 W/m2
15:47 15.7 °C 12.8 °C 1005.0 hPa NNE 1.1 km/h 8.7 km/h 83% 0.5 mm 133 W/m2
15:52 15.6 °C 12.6 °C 1004.6 hPa NNE 2.6 km/h 8.7 km/h 82% 0.5 mm 203 W/m2
15:57 16.2 °C 13.1 °C 1004.6 hPa NNE 3.5 km/h 8.7 km/h 82% 0.3 mm 220 W/m2
16:02 16.5 °C 13.2 °C 1004.3 hPa NE 2.6 km/h 8.7 km/h 81% 0.3 mm 224 W/m2
16:07 16.4 °C 12.6 °C 1004.6 hPa NE 5.0 km/h 12.2 km/h 78% 0.3 mm 230 W/m2
16:14 16.6 °C 12.6 °C 1004.3 hPa NE 3.5 km/h 12.2 km/h 77% 0.3 mm 154 W/m2
16:19 16.6 °C 12.6 °C 1003.9 hPa NE 3.5 km/h 9.7 km/h 77% 0.3 mm 152 W/m2
16:24 16.6 °C 12.6 °C 1003.9 hPa NE 3.5 km/h 7.2 km/h 77% 0.3 mm 163 W/m2
16:29 16.8 °C 12.9 °C 1003.9 hPa NE 3.5 km/h 7.2 km/h 78% 0.3 mm 180 W/m2
16:33 17.1 °C 12.8 °C 1003.9 hPa NE 5.0 km/h 8.7 km/h 76% 0.3 mm 245 W/m2
16:38 17.1 °C 12.4 °C 1003.9 hPa NE 2.6 km/h 8.7 km/h 74% 0.0 mm 201 W/m2
16:43 17.3 °C 12.6 °C 1003.9 hPa NE 6.1 km/h 8.7 km/h 74% 0.0 mm 198 W/m2
16:48 17.5 °C 12.6 °C 1003.9 hPa ENE 6.1 km/h 8.7 km/h 73% 0.0 mm 241 W/m2
16:53 17.6 °C 12.5 °C 1003.6 hPa ENE 6.1 km/h 9.7 km/h 72% 0.0 mm 259 W/m2
16:58 18.1 °C 12.8 °C 1003.6 hPa ENE 7.2 km/h 9.7 km/h 71% 0.0 mm 383 W/m2
17:03 18.3 °C 12.3 °C 1003.6 hPa ENE 3.5 km/h 11.1 km/h 68% 0.0 mm 361 W/m2
17:08 19.0 °C 12.7 °C 1003.6 hPa NE 5.0 km/h 11.1 km/h 67% 0.0 mm 309 W/m2
17:13 19.3 °C 12.6 °C 1003.3 hPa NNE 1.1 km/h 9.7 km/h 65% 0.0 mm 243 W/m2
17:18 19.7 °C 12.9 °C 1003.6 hPa NE 6.1 km/h 9.7 km/h 65% 0.0 mm 265 W/m2
17:23 19.9 °C 12.9 °C 1003.3 hPa NE 2.6 km/h 11.1 km/h 64% 0.0 mm 325 W/m2
17:28 19.9 °C 12.2 °C 1003.6 hPa NNE 5.0 km/h 11.1 km/h 61% 0.0 mm 276 W/m2
17:34 20.2 °C 12.4 °C 1003.3 hPa NNE 6.1 km/h 11.1 km/h 61% 0.0 mm 242 W/m2
17:44 20.0 °C 12.3 °C 1002.9 hPa NNE 5.0 km/h 13.4 km/h 61% 0.0 mm 212 W/m2
17:49 20.1 °C 12.3 °C 1002.9 hPa NNE 3.5 km/h 13.4 km/h 61% 0.0 mm 196 W/m2
17:54 20.2 °C 12.4 °C 1002.9 hPa NNE 6.1 km/h 8.7 km/h 61% 0.0 mm 182 W/m2
17:59 20.1 °C 12.6 °C 1002.6 hPa NE 3.5 km/h 11.1 km/h 62% 0.0 mm 168 W/m2
18:04 19.9 °C 12.7 °C 1002.9 hPa NE 1.1 km/h 11.1 km/h 63% 0.0 mm 57 W/m2
18:09 18.9 °C 12.2 °C 1002.9 hPa NNE 1.1 km/h 9.7 km/h 65% 0.0 mm 38 W/m2
18:14 18.2 °C 12.0 °C 1002.6 hPa NNE 3.5 km/h 8.7 km/h 67% 0.0 mm 38 W/m2
18:19 17.8 °C 12.3 °C 1002.6 hPa North 3.5 km/h 9.7 km/h 70% 0.0 mm 36 W/m2
18:24 17.7 °C 12.4 °C 1002.9 hPa North 1.1 km/h 9.7 km/h 71% 0.0 mm 49 W/m2
18:29 18.3 °C 12.5 °C 1002.6 hPa NNE 3.5 km/h 8.7 km/h 69% 0.0 mm 75 W/m2
18:34 18.5 °C 12.5 °C 1002.6 hPa North 3.5 km/h 7.2 km/h 68% 0.0 mm 69 W/m2
18:39 17.9 °C 12.2 °C 1002.6 hPa NNE 2.6 km/h 11.1 km/h 69% 0.0 mm 57 W/m2
18:44 18.0 °C 12.2 °C 1002.6 hPa NNE 8.7 km/h 11.1 km/h 69% 0.0 mm 39 W/m2
18:49 17.5 °C 12.2 °C 1002.6 hPa North 3.5 km/h 11.1 km/h 71% 0.0 mm 27 W/m2
18:54 17.3 °C 12.2 °C 1002.6 hPa Calm   8.7 km/h 72% 0.0 mm 31 W/m2
18:59 17.5 °C 12.4 °C 1002.9 hPa North 1.1 km/h 6.1 km/h 72% 0.0 mm 28 W/m2
19:04 17.3 °C 12.4 °C 1002.9 hPa Calm   6.1 km/h 73% 0.0 mm 21 W/m2
19:09 17.0 °C 12.1 °C 1002.9 hPa Calm   6.1 km/h 73% 0.0 mm 19 W/m2
19:14 16.7 °C 12.4 °C 1002.9 hPa North 2.6 km/h 5.0 km/h 76% 0.0 mm 13 W/m2
19:19 16.5 °C 12.4 °C 1002.6 hPa North 2.6 km/h 7.2 km/h 77% 0.0 mm 10 W/m2
19:24 16.3 °C 12.4 °C 1002.9 hPa Calm   7.2 km/h 78% 0.0 mm 6 W/m2
19:29 16.1 °C 12.3 °C 1002.9 hPa Calm   5.0 km/h 78% 0.0 mm 4 W/m2
19:34 15.9 °C 12.4 °C 1002.9 hPa SSE 3.5 km/h 6.1 km/h 80% 0.0 mm 1 W/m2
19:36 15.8 °C 12.6 °C 1002.9 hPa South 2.6 km/h 6.1 km/h 81% 0.0 mm 0 W/m2
19:41 15.6 °C 12.3 °C 1003.3 hPa Calm   6.1 km/h 81% 0.0 mm 0 W/m2
19:46 15.4 °C 12.6 °C 1002.9 hPa Calm   3.5 km/h 83% 0.0 mm 0 W/m2
19:51 15.2 °C 12.5 °C 1003.3 hPa Calm   3.5 km/h 84% 0.0 mm 0 W/m2
19:56 15.0 °C 12.3 °C 1003.3 hPa Calm   2.6 km/h 84% 0.0 mm 0 W/m2
20:01 14.9 °C 12.6 °C 1003.3 hPa Calm   2.6 km/h 86% 0.0 mm 0 W/m2
20:06 14.5 °C 12.2 °C 1003.3 hPa Calm   2.6 km/h 86% 0.0 mm 0 W/m2
20:11 14.4 °C 12.1 °C 1003.3 hPa Calm   1.1 km/h 86% 0.0 mm 0 W/m2
20:16 14.3 °C 12.3 °C 1003.3 hPa NNW 2.6 km/h 5.0 km/h 88% 0.0 mm 0 W/m2
20:21 14.1 °C 12.3 °C 1003.3 hPa NNW 1.1 km/h 5.0 km/h 89% 0.0 mm 0 W/m2
20:26 14.1 °C 12.3 °C 1003.3 hPa NNW 1.1 km/h 5.0 km/h 89% 0.0 mm 0 W/m2
20:31 13.9 °C 12.4 °C 1003.3 hPa NW 2.6 km/h 3.5 km/h 91% 0.0 mm 0 W/m2
20:36 13.8 °C 12.4 °C 1003.3 hPa NW 1.1 km/h 3.5 km/h 91% 0.0 mm 0 W/m2
20:41 13.8 °C 12.6 °C 1003.6 hPa NW 1.1 km/h 3.5 km/h 92% 0.0 mm 0 W/m2
20:46 13.8 °C 12.6 °C 1003.6 hPa NW 1.1 km/h 5.0 km/h 92% 0.0 mm 0 W/m2
20:51 13.8 °C 12.6 °C 1003.6 hPa NW 2.6 km/h 5.0 km/h 92% 0.0 mm 0 W/m2
20:56 13.6 °C 12.3 °C 1003.6 hPa NW 2.6 km/h 5.0 km/h 92% 0.0 mm 0 W/m2
21:02 13.6 °C 12.5 °C 1003.6 hPa NNW 2.6 km/h 5.0 km/h 93% 0.0 mm 0 W/m2
21:07 13.6 °C 12.5 °C 1003.6 hPa NNW 2.6 km/h 5.0 km/h 93% 0.0 mm 0 W/m2
21:12 13.5 °C 12.6 °C 1003.9 hPa North 2.6 km/h 3.5 km/h 94% 0.0 mm 0 W/m2
21:17 13.4 °C 12.4 °C 1003.9 hPa North 2.6 km/h 5.0 km/h 94% 0.0 mm 0 W/m2
21:22 13.3 °C 12.3 °C 1003.6 hPa NNW 2.6 km/h 5.0 km/h 94% 0.0 mm 0 W/m2
21:27 13.2 °C 12.4 °C 1003.9 hPa NNW 2.6 km/h 5.0 km/h 95% 0.0 mm 0 W/m2
21:32 13.1 °C 12.3 °C 1003.9 hPa NNW 3.5 km/h 5.0 km/h 95% 0.0 mm 0 W/m2
21:37 12.9 °C 12.1 °C 1003.9 hPa NW 3.5 km/h 6.1 km/h 95% 0.0 mm 0 W/m2
21:42 12.9 °C 12.1 °C 1003.9 hPa NW 3.5 km/h 6.1 km/h 95% 0.0 mm 0 W/m2
21:47 12.8 °C 12.0 °C 1003.9 hPa NNW 3.5 km/h 6.1 km/h 95% 0.0 mm 0 W/m2
21:52 12.8 °C 12.0 °C 1003.9 hPa NNW 3.5 km/h 6.1 km/h 95% 0.0 mm 0 W/m2
21:56 12.7 °C 11.9 °C 1003.9 hPa NNW 2.6 km/h 6.1 km/h 95% 0.0 mm 0 W/m2
22:01 12.6 °C 11.8 °C 1003.9 hPa NNW 2.6 km/h 6.1 km/h 95% 0.0 mm 0 W/m2
22:06 12.5 °C 11.7 °C 1003.9 hPa NNW 2.6 km/h 6.1 km/h 95% 0.0 mm 0 W/m2
22:11 12.4 °C 11.6 °C 1003.9 hPa NNW 2.6 km/h 6.1 km/h 95% 0.0 mm 0 W/m2
22:16 12.3 °C 11.5 °C 1003.6 hPa NW 1.1 km/h 5.0 km/h 95% 0.0 mm 0 W/m2
22:21 12.1 °C 11.3 °C 1003.6 hPa NW 1.1 km/h 5.0 km/h 95% 0.0 mm 0 W/m2
22:26 12.2 °C 11.4 °C 1003.6 hPa NW 2.6 km/h 5.0 km/h 95% 0.0 mm 0 W/m2
22:31 12.2 °C 11.3 °C 1003.6 hPa NW 2.6 km/h 5.0 km/h 94% 0.0 mm 0 W/m2
22:36 12.3 °C 11.4 °C 1003.6 hPa NNW 2.6 km/h 5.0 km/h 94% 0.0 mm 0 W/m2
22:41 12.5 °C 11.4 °C 1003.6 hPa North 3.5 km/h 5.0 km/h 93% 0.0 mm 0 W/m2
22:46 12.5 °C 11.2 °C 1003.6 hPa North 3.5 km/h 6.1 km/h 92% 0.0 mm 0 W/m2
22:51 12.5 °C 11.1 °C 1003.6 hPa North 3.5 km/h 6.1 km/h 91% 0.0 mm 0 W/m2
22:56 12.5 °C 10.9 °C 1003.6 hPa North 6.1 km/h 8.7 km/h 90% 0.0 mm 0 W/m2
23:01 12.7 °C 10.9 °C 1003.6 hPa NNE 5.0 km/h 9.7 km/h 89% 0.0 mm 0 W/m2
23:06 12.7 °C 10.9 °C 1003.6 hPa NNE 2.6 km/h 9.7 km/h 89% 0.0 mm 0 W/m2
23:11 12.6 °C 10.7 °C 1003.6 hPa North 2.6 km/h 8.7 km/h 88% 0.0 mm 0 W/m2
23:16 12.5 °C 10.6 °C 1003.6 hPa North 1.1 km/h 6.1 km/h 88% 0.0 mm 0 W/m2
23:21 12.3 °C 10.4 °C 1003.9 hPa North 2.6 km/h 5.0 km/h 88% 0.0 mm 0 W/m2
23:26 12.3 °C 10.4 °C 1003.6 hPa North 3.5 km/h 6.1 km/h 88% 0.0 mm 0 W/m2
23:31 12.2 °C 10.3 °C 1003.6 hPa North 3.5 km/h 6.1 km/h 88% 0.0 mm 0 W/m2
23:36 12.2 °C 10.3 °C 1003.6 hPa North 2.6 km/h 6.1 km/h 88% 0.0 mm 0 W/m2
23:41 11.9 °C 10.2 °C 1003.6 hPa North 2.6 km/h 6.1 km/h 89% 0.0 mm 0 W/m2
23:46 11.9 °C 10.2 °C 1003.6 hPa North 3.5 km/h 6.1 km/h 89% 0.0 mm 0 W/m2
23:51 11.8 °C 10.1 °C 1003.9 hPa North 2.6 km/h 6.1 km/h 89% 0.0 mm 0 W/m2
23:56 11.9 °C 10.2 °C 1003.6 hPa North 2.6 km/h 6.1 km/h 89% 0.0 mm 0 W/m2
Northern Hawkes Bay. New Zealand Historic Data
Compliments of Weather Underground - 2 mb